Weather in Calcutta

India     22°43′55″N   88°28′09″E
temp.,
°C
wind,
m/s
gust,
m/s
humid.,
%
clouds,
%
prec.,
mm/h
press.,
hPa
HPBL,
m
7 may, fri
fri723:30+25se5680100 3.2 1010165
02:30+27ssw4975100 0.0 1010453
05:30+28ssw51074100 0.0 1010458
08:30+33sw34531 0.0 10121293
11:30+38ssw45348 0.0 10092786
14:30+37ssw66317 0.0 10051986
17:30+33sse694073 0.1 1006934
20:30+26e457568 2.9 1010181
8 may, sat
sat823:30+26ssw24745 2.9 1009143
02:30+26s25795 0.0 1007141
05:30+27sw38825 0.0 1009442
08:30+32ssw34505 0.0 10111185
11:30+37sw43355 0.0 10082248
14:30+38sw232847 0.0 10043219
17:30+34s8104779 0.0 1004969
20:30+29sw81172100 6.9 1007887
9 may, sun
sun923:30+28s378144 11.0 1007379
02:30+27ssw36746 0.0 1007268
05:30+26ssw25795 0.2 1008360
08:30+32ssw68565 0.0 10081007
11:30+37ssw55375 0.0 10062041
14:30+39s653299 0.0 10022818
17:30+33s7105195 0.9 1002732
20:30+24wnw91493100 24.7 1006936
10 may, mon
mon1023:30+25ese4880100 36.3 1006232
02:30+27ssw410865 0.0 1003430
05:30+27ssw27865 0.0 1005436
08:30+32ssw446214 0.0 10061131
11:30+37ssw45410 0.0 10042230
14:30+37ssw6738100 0.0 10002564
17:30+29ene267112 3.7 1001286
20:30+28se611827 3.0 1004395
11 may, tue
tue1123:30+29s7118025 9.3 1004777
02:30+27s611875 0.0 1002554
05:30+28ssw612845 0.0 1002595
08:30+33ssw910595 0.0 10041113
11:30+38ssw67390 0.0 10021841
14:30+39sse77350 0.0 9982429
17:30+25se1576100 29.9 999475
20:30+25se6984100 11.8 1002352